Temp
80 76 76 76 76 77 75 76 76 76 78 80 80 85 87 86 83 82 81 81 80 79 79 79 80 80 80 79 79 80 80 79 80 79 80 80 81 81 80 81 81 80 80 79 80 80 80 82 82 82 82 82 81 81 81 81 81 83 81 80 80 81 80
75 77 78 78 77 77 77 76 77 78 78 79 79 80 83 83 83 83 81 81 81 80 80 80 80 80 81 80 80 79 79 80 80 81 81 80 81 81 81 81 81 80 81 81 80 81 82 82 82 81 82 82 82 81 82 81 81 80 81 80 79 79 80
72 72 75 78 78 77 76 76 77 78 78 79 80 80 81 79 83 82 82 82 81 81 81 80 80 81 81 80 79 80 80 80 80 81 81 81 82 84 83 82 81 83 83 83 83 82 83 82 82 82 82 82 83 81 81 81 81 81 80 80 80 79 79
69 71 72 77 77 77 77 77 78 80 79 78 79 80 80 79 82 82 83 83 82 81 81 81 81 81 81 80 80 79 80 80 81 82 82 82 82 82 82 82 82 83 83 82 85 85 87 82 83 81 83 81 81 83 82 82 82 81 80 80 80 80 79
69 71 73 76 77 75 75 75 77 77 77 79 77 77 78 80 82 84 85 84 84 83 83 83 84 83 82 82 83 82 81 81 81 81 82 82 82 82 81 83 83 83 83 84 82 84 81 82 82 82 82 82 81 82 82 81 81 81 80 80 80 80 80
68 69 71 75 76 76 76 76 77 77 77 79 78 78 79 82 82 84 86 85 85 85 84 82 83 83 82 83 83 84 81 81 80 80 82 81 81 83 82 82 83 84 83 84 83 85 82 83 83 82 83 83 83 83 82 82 82 83 81 81 81 80 81
71 72 72 74 75 74 73 73 75 77 76 79 80 82 82 83 83 85 85 86 86 84 84 83 82 83 83 84 83 82 81 82 81 81 82 83 82 82 83 82 82 85 84 84 83 85 83 83 84 83 83 84 82 83 82 81 81 82 81 80 80 80 80
71 71 74 75 75 74 73 73 73 75 77 78 78 77 79 82 84 85 86 84 87 86 85 83 81 80 81 84 84 83 83 84 83 83 82 83 83 81 83 83 82 83 84 84 84 84 85 84 85 84 84 84 82 81 82 82 81 83 81 80 80 81 84
73 73 73 74 75 74 74 72 72 72 73 74 76 77 80 81 80 77 76 76 80 81 79 80 81 81 81 80 81 82 84 84 84 84 83 84 83 84 84 84 85 83 84 84 85 84 85 84 85 82 83 83 82 82 81 81 82 82 82 81 80 80 82
72 71 72 74 74 74 73 73 73 70 70 71 72 74 75 75 74 74 73 73 73 74 76 80 79 79 78 77 78 80 81 82 84 85 85 85 85 85 86 86 86 85 84 84 85 85 83 84 85 82 81 82 81 81 82 81 82 82 82 81 81 81 80
71 71 71 72 72 72 72 71 71 70 69 69 71 73 74 74 73 74 74 75 75 75 75 75 76 76 78 78 78 77 77 80 83 84 84 86 87 86 87 87 87 86 87 86 86 86 85 83 84 83 82 84 82 81 81 81 82 82 82 82 82 82 82
70 71 70 70 70 70 70 70 70 69 70 70 70 70 70 72 72 73 72 75 77 76 75 75 77 78 78 80 78 77 78 79 78 79 79 79 81 84 86 87 88 86 88 88 87 85 86 85 84 84 82 83 83 82 81 81 81 81 82 83 83 82 83
71 70 70 70 69 70 70 70 70 69 69 70 70 70 70 69 71 71 71 74 75 75 76 78 78 75 74 77 80 77 77 76 76 76 78 78 78 80 81 82 85 88 88 89 88 89 87 87 85 84 84 83 84 84 82 82 82 80 81 82 83 83 82
71 70 70 70 71 71 71 70 70 68 69 70 69 70 69 70 70 71 72 72 73 74 74 76 77 77 76 75 75 75 75 76 76 76 76 78 78 78 79 80 80 80 82 85 88 89 89 88 87 85 85 85 85 84 84 82 82 81 80 81 82 83 82
71 71 70 70 69 69 71 71 69 69 69 69 69 68 69 69 70 70 72 73 72 72 72 73 74 75 74 74 74 74 75 75 76 75 75 77 76 76 76 77 77 78 78 78 80 84 86 90 89 87 85 85 84 84 85 84 83 83 83 82 81 82 81
72 72 72 71 71 71 72 72 72 71 71 70 69 68 69 69 70 70 71 71 72 72 73 73 74 74 74 74 73 74 75 75 74 73 74 74 74 74 76 76 76 78 77 77 79 78 78 79 83 86 87 85 84 84 86 85 85 83 80 80 83 82 85
70 70 71 72 71 72 72 72 73 72 71 71 69 68 70 72 73 72 72 72 72 72 73 73 73 73 73 73 74 74 75 75 74 74 73 73 73 73 74 74 75 75 75 75 76 76 77 78 80 82 86 87 86 84 86 87 88 79 72 73 76 84 82
68 69 69 69 69 70 71 72 73 73 73 73 72 71 71 71 73 73 72 73 73 73 73 73 72 72 72 72 73 73 73 73 74 74 73 74 73 73 74 74 73 73 75 75 75 75 79 80 80 79 82 87 87 87 86 86 83 74 70 72 71 77 84
68 68 68 68 67 67 69 70 71 71 73 74 74 73 74 76 76 75 75 74 75 75 74 73 72 72 72 72 72 72 72 73 74 74 74 74 75 75 75 74 74 74 75 75 75 75 76 78 80 80 79 81 81 86 87 87 78 72 70 70 70 70 79
69 69 68 68 68 67 65 67 68 69 70 71 74 76 76 75 76 76 77 75 74 74 73 73 73 73 73 73 72 72 73 73 73 73 73 73 74 75 75 74 74 75 76 75 74 74 75 78 79 79 78 78 78 77 80 82 79 70 67 67 68 69 73
67 66 66 65 64 65 64 65 66 67 70 73 73 73 73 74 75 75 75 76 75 74 73 73 73 72 72 72 71 72 72 72 72 72 73 73 72 73 74 73 73 74 75 75 75 74 74 75 75 76 77 79 79 79 80 81 68 69 67 65 63 64 68
70 69 67 66 65 64 64 66 65 67 69 72 73 74 73 72 74 74 74 77 76 74 73 72 71 72 72 71 72 72 72 72 71 72 72 72 72 73 72 73 72 73 74 74 75 75 75 75 77 77 77 77 78 78 78 80 68 70 66 65 65 65 70
71 71 69 68 70 68 67 67 67 69 69 69 71 71 72 73 73 72 73 74 75 73 73 71 70 70 70 71 73 73 74 74 73 72 72 72 72 72 72 72 72 72 74 74 74 75 75 76 77 76 77 77 78 77 76 78 71 66 66 64 61 65 72
73 72 72 70 69 70 68 68 69 71 71 69 68 69 70 72 72 71 69 71 73 73 71 70 68 69 69 70 72 73 73 74 74 73 72 72 71 71 71 72 72 72 74 73 73 73 75 76 76 77 77 77 77 78 78 79 77 68 62 61 60 67 73
72 72 71 70 70 69 69 68 69 71 70 70 68 68 69 68 68 69 68 69 70 71 69 68 68 68 69 70 71 72 73 73 73 73 74 72 72 72 71 71 72 72 71 70 71 72 74 75 75 76 77 79 79 81 79 79 78 69 66 63 57 63 72
68 69 70 70 71 69 68 68 68 69 69 68 67 70 69 68 67 67 67 67 67 68 67 67 67 68 69 69 70 71 72 73 73 73 74 72 72 72 72 72 71 70 70 70 71 70 71 73 74 74 76 78 79 81 80 79 79 77 65 60 57 58 72
70 69 69 70 69 70 68 68 67 67 68 66 67 69 69 68 66 65 66 66 65 66 67 68 68 68 68 69 70 71 72 73 73 73 74 74 72 73 73 73 71 70 70 69 69 70 71 72 73 74 75 77 79 79 80 81 79 78 65 59 58 57 62
69 70 71 70 70 69 67 68 66 67 67 67 68 68 67 66 65 65 65 64 65 66 69 68 68 68 68 67 69 70 72 72 72 74 75 74 74 72 71 72 72 72 70 69 69 69 70 72 72 72 73 76 77 78 79 81 81 78 68 59 57 56 54
65 65 65 66 66 67 68 65 65 66 65 66 67 66 66 65 64 64 64 62 65 67 68 69 68 69 68 68 68 69 70 70 72 73 76 75 72 71 71 71 72 72 72 71 70 70 70 70 71 72 72 74 75 77 78 79 75 67 71 65 57 55 53
65 65 65 67 66 65 66 63 64 64 64 65 64 64 64 63 62 64 63 62 66 66 68 67 68 68 69 68 68 68 68 71 72 72 72 71 71 71 71 70 71 72 72 71 70 70 70 70 70 70 70 70 71 73 75 75 72 72 69 69 61 55 53
63 63 63 62 63 63 63 62 61 62 63 64 64 64 64 63 62 63 62 64 66 66 66 67 68 68 68 68 68 68 69 69 69 69 69 70 71 70 70 70 71 70 71 72 71 71 70 69 70 68 68 68 69 69 70 71 72 73 71 66 64 58 55
61 62 63 62 61 62 62 61 61 61 61 61 63 63 64 63 63 62 62 65 65 67 66 66 66 67 67 67 68 68 69 68 70 71 70 70 70 70 70 70 70 69 69 69 69 69 69 68 68 68 68 67 68 68 68 69 71 72 74 74 72 68 60
59 59 59 58 60 61 60 60 60 60 60 60 61 62 63 63 64 64 64 64 66 66 65 65 66 66 66 66 67 68 67 66 68 68 69 69 70 70 70 70 69 69 68 68 67 66 67 69 68 67 67 67 67 68 68 69 69 70 71 71 71 71 69
57 57 58 60 60 61 59 59 58 59 59 59 59 61 62 62 63 64 64 65 66 66 64 64 65 65 64 66 67 67 68 67 73 69 66 68 68 68 68 69 69 68 67 66 66 65 65 66 66 65 65 66 67 67 67 67 67 68 70 68 66 65 64
57 57 58 59 60 62 57 58 58 58 59 59 59 60 60 61 63 64 63 64 65 64 64 64 65 65 65 65 66 66 68 67 66 66 65 65 66 66 67 67 68 67 66 68 67 68 68 66 65 66 67 66 65 65 65 66 66 68 63 63 56 57 59
56 57 58 58 59 58 59 59 58 58 58 57 58 59 60 60 61 63 65 65 65 65 63 64 64 63 63 65 65 66 66 65 65 64 64 64 63 65 66 70 63 63 64 65 68 64 58 56 64 67 67 65 65 66 64 65 68 61 52 48 46 46 46
56 56 56 57 58 59 59 59 60 58 57 57 58 58 59 59 61 62 64 64 64 64 63 63 63 63 64 65 65 65 66 64 63 63 63 62 63 63 63 64 65 55 54 57 60 56 50 48 48 49 51 58 62 64 60 58 56 51 47 45 45 44 44
57 57 58 59 58 57 57 59 59 58 57 57 57 57 58 60 62 61 63 63 63 63 63 62 62 61 62 63 63 64 64 63 63 64 64 63 62 63 62 61 62 63 58 56 56 55 53 52 51 49 49 50 53 59 62 58 53 50 45 44 44 43 43
MSLP
1013.27 1013.91 1013.87 1014.15 1014.31 1014.27 1014.51 1014.31 1013.99 1013.99 1013.75 1013.91 1013.87 1013.95 1014.03 1014.31 1014.71 1015.07 1015.59 1015.87 1016.27 1016.63 1016.63 1016.79 1016.95 1017.07 1017.31 1017.43 1017.51 1017.55 1017.63 1017.83 1017.91 1018.23 1018.47 1018.71 1018.75 1019.07 1019.39 1019.47 1019.75 1019.83 1019.87 1020.11 1020.15 1020.19 1020.07 1019.91 1020.03 1020.11 1020.15 1020.23 1020.31 1020.39 1020.43 1020.47 1020.55 1020.55 1020.59 1020.59 1020.71 1020.87 1020.99
1014.23 1014.07 1014.03 1013.91 1014.03 1014.23 1014.47 1014.47 1014.19 1013.99 1013.79 1013.99 1013.99 1013.99 1013.95 1014.27 1014.47 1014.79 1015.19 1015.47 1015.79 1016.15 1016.35 1016.55 1016.79 1016.95 1017.11 1017.23 1017.27 1017.43 1017.63 1017.71 1017.79 1017.91 1018.19 1018.47 1018.55 1018.75 1018.83 1019.15 1019.43 1019.67 1019.67 1019.71 1019.79 1019.79 1019.87 1019.87 1019.91 1020.07 1020.19 1020.19 1020.31 1020.27 1020.39 1020.43 1020.47 1020.55 1020.63 1020.63 1020.83 1020.95 1020.99
1014.95 1014.59 1014.23 1013.95 1014.11 1014.31 1014.43 1014.63 1014.39 1013.91 1013.75 1013.91 1014.07 1014.19 1014.07 1014.23 1014.31 1014.51 1014.83 1015.23 1015.63 1015.83 1015.99 1016.31 1016.51 1016.71 1016.87 1017.07 1017.27 1017.35 1017.43 1017.55 1017.75 1017.91 1018.19 1018.43 1018.55 1018.59 1018.59 1018.79 1019.03 1019.27 1019.35 1019.35 1019.47 1019.63 1019.59 1019.83 1019.79 1019.91 1020.07 1020.27 1020.27 1020.31 1020.31 1020.43 1020.47 1020.51 1020.63 1020.67 1020.83 1020.95 1021.07
1015.47 1015.23 1014.75 1014.11 1014.11 1014.15 1014.15 1014.15 1014.27 1014.03 1013.87 1013.91 1014.11 1014.15 1014.03 1014.11 1013.95 1014.23 1014.43 1014.75 1015.31 1015.67 1015.99 1016.03 1016.23 1016.47 1016.67 1016.99 1017.19 1017.27 1017.35 1017.39 1017.47 1017.71 1017.83 1017.99 1018.23 1018.27 1018.55 1018.67 1018.79 1018.87 1019.15 1019.27 1019.19 1019.27 1019.35 1019.59 1019.79 1019.87 1019.95 1020.15 1020.27 1020.27 1020.27 1020.39 1020.43 1020.51 1020.59 1020.67 1020.87 1020.87 1020.95
1015.95 1015.47 1014.91 1014.55 1014.63 1014.71 1014.67 1014.59 1014.43 1014.39 1014.35 1014.11 1014.47 1014.67 1014.15 1014.07 1013.99 1014.11 1014.39 1014.51 1014.71 1015.19 1015.27 1015.47 1015.67 1015.99 1016.23 1016.47 1016.79 1016.95 1017.07 1017.19 1017.35 1017.43 1017.59 1017.71 1017.83 1017.99 1018.39 1018.59 1018.63 1018.79 1018.79 1018.83 1018.87 1019.03 1019.23 1019.47 1019.67 1019.83 1019.95 1019.99 1020.19 1020.23 1020.31 1020.31 1020.43 1020.43 1020.55 1020.63 1020.91 1020.91 1020.99
1016.27 1015.99 1015.59 1015.15 1014.91 1014.91 1014.91 1014.79 1014.55 1014.35 1014.27 1014.27 1014.55 1014.63 1014.23 1014.11 1014.07 1014.19 1014.11 1014.43 1014.63 1014.67 1014.83 1015.19 1015.55 1015.75 1016.19 1016.23 1016.39 1016.63 1016.79 1016.91 1017.03 1017.15 1017.39 1017.55 1017.79 1017.99 1018.19 1018.27 1018.39 1018.51 1018.71 1018.71 1018.67 1018.79 1018.99 1019.23 1019.39 1019.63 1019.91 1019.91 1020.03 1020.19 1020.19 1020.31 1020.31 1020.35 1020.51 1020.63 1020.79 1020.87 1020.99
1016.11 1015.79 1015.67 1015.43 1015.31 1015.59 1015.59 1015.35 1014.87 1014.35 1014.23 1014.23 1014.19 1013.87 1013.87 1013.99 1014.15 1014.03 1013.87 1014.15 1014.23 1014.71 1014.91 1015.15 1015.19 1015.39 1015.71 1015.87 1016.19 1016.39 1016.71 1016.87 1016.95 1017.15 1017.15 1017.35 1017.51 1017.79 1017.91 1017.99 1018.07 1018.15 1018.23 1018.31 1018.55 1018.55 1018.87 1019.11 1019.15 1019.27 1019.47 1019.67 1019.83 1020.03 1020.15 1020.27 1020.31 1020.23 1020.39 1020.63 1020.75 1020.75 1020.79
1016.39 1016.31 1015.83 1015.51 1015.55 1015.75 1015.87 1015.67 1015.35 1014.87 1014.39 1013.99 1014.03 1014.07 1014.15 1013.99 1013.91 1014.03 1014.03 1013.95 1013.99 1014.19 1014.51 1014.83 1015.07 1015.35 1015.51 1015.59 1015.83 1016.15 1016.43 1016.55 1016.67 1016.83 1016.99 1017.19 1017.35 1017.59 1017.63 1017.71 1017.83 1017.87 1017.95 1018.31 1018.27 1018.27 1018.55 1018.83 1018.91 1019.03 1019.19 1019.47 1019.67 1019.75 1019.87 1019.99 1020.07 1020.11 1020.23 1020.55 1020.71 1020.75 1020.59
1016.15 1015.99 1016.19 1015.99 1015.79 1015.91 1015.87 1015.91 1015.87 1015.59 1015.19 1014.87 1014.67 1014.63 1014.43 1014.35 1014.59 1015.27 1015.51 1015.15 1014.87 1014.91 1015.27 1014.87 1014.91 1014.95 1015.23 1015.71 1015.75 1015.95 1016.03 1016.19 1016.55 1016.67 1016.91 1017.11 1017.19 1017.35 1017.39 1017.47 1017.47 1017.51 1017.87 1018.03 1018.11 1017.99 1018.15 1018.47 1018.63 1018.87 1019.03 1019.27 1019.43 1019.55 1019.71 1019.79 1019.87 1019.87 1020.07 1020.31 1020.51 1020.67 1020.59
1016.43 1016.59 1016.43 1016.23 1016.03 1015.99 1016.03 1016.07 1015.95 1015.91 1015.87 1015.83 1015.75 1015.67 1015.59 1015.51 1015.71 1015.83 1016.11 1016.47 1016.63 1016.55 1016.23 1015.91 1015.43 1015.03 1015.15 1015.27 1015.51 1015.67 1015.91 1016.19 1016.23 1016.47 1016.75 1016.99 1016.95 1017.11 1017.07 1017.11 1017.23 1017.23 1017.55 1017.67 1017.71 1017.95 1017.95 1017.99 1018.23 1018.55 1018.87 1019.11 1019.27 1019.39 1019.47 1019.59 1019.63 1019.71 1019.79 1019.99 1020.19 1020.39 1020.51
1016.95 1016.79 1016.75 1016.71 1016.67 1016.59 1016.51 1016.67 1016.63 1016.63 1016.55 1016.51 1016.35 1016.23 1016.07 1015.95 1015.91 1016.19 1016.15 1015.87 1016.31 1016.79 1016.95 1017.03 1016.87 1016.35 1015.27 1015.15 1015.51 1015.83 1016.03 1016.23 1016.31 1016.51 1016.55 1016.67 1016.71 1016.87 1016.83 1016.87 1016.95 1017.03 1017.23 1017.39 1017.59 1017.59 1017.75 1017.87 1017.87 1018.23 1018.55 1018.87 1019.03 1019.19 1019.27 1019.31 1019.39 1019.55 1019.63 1019.67 1019.75 1019.95 1020.11
1017.27 1017.27 1017.31 1017.19 1017.11 1017.03 1017.15 1017.15 1017.11 1017.15 1017.03 1016.95 1016.79 1016.79 1016.75 1016.51 1016.35 1016.47 1016.83 1016.63 1016.03 1015.91 1016.15 1016.67 1016.83 1016.43 1016.03 1015.55 1015.71 1015.99 1016.23 1016.39 1016.51 1016.75 1016.83 1017.03 1017.03 1017.07 1016.99 1016.75 1016.67 1016.87 1016.91 1016.95 1017.31 1017.39 1017.43 1017.63 1017.79 1017.95 1018.23 1018.31 1018.47 1018.63 1018.83 1018.91 1019.03 1019.23 1019.35 1019.43 1019.51 1019.67 1019.79
1017.27 1017.43 1017.47 1017.47 1017.35 1017.23 1017.15 1017.19 1017.35 1017.43 1017.35 1017.31 1017.23 1017.15 1017.15 1017.11 1016.79 1016.83 1017.15 1016.95 1016.71 1016.55 1016.11 1016.03 1016.23 1016.51 1016.95 1016.59 1016.15 1016.23 1016.47 1016.59 1016.71 1016.87 1017.07 1017.23 1017.27 1017.11 1017.15 1017.23 1017.11 1016.79 1016.75 1016.59 1016.83 1017.07 1017.31 1017.35 1017.51 1017.51 1017.71 1017.91 1017.99 1018.19 1018.39 1018.59 1018.71 1018.87 1019.07 1019.15 1019.19 1019.35 1019.55
1017.31 1017.51 1017.67 1017.63 1017.63 1017.59 1017.63 1017.67 1017.67 1017.75 1017.67 1017.67 1017.63 1017.39 1017.23 1017.15 1017.03 1016.95 1017.03 1017.35 1017.23 1017.11 1017.23 1016.83 1016.27 1016.23 1016.71 1017.23 1017.19 1016.83 1016.83 1016.79 1016.83 1016.91 1017.03 1016.99 1016.99 1017.11 1017.23 1017.19 1017.19 1017.23 1017.07 1016.75 1016.55 1016.59 1016.79 1017.07 1017.23 1017.27 1017.31 1017.47 1017.63 1017.71 1017.83 1018.11 1018.39 1018.55 1018.67 1018.83 1018.91 1019.07 1019.19
1017.47 1017.79 1018.03 1018.31 1018.23 1018.03 1017.87 1017.91 1018.07 1017.99 1017.87 1017.75 1017.59 1017.71 1017.55 1017.43 1017.47 1017.43 1017.11 1016.95 1016.95 1017.19 1017.71 1017.51 1016.95 1016.43 1016.59 1017.03 1017.55 1017.55 1017.23 1017.07 1017.07 1017.07 1016.99 1016.99 1017.03 1017.03 1017.07 1017.03 1017.03 1017.11 1017.15 1016.95 1016.99 1016.99 1016.91 1016.55 1016.59 1016.95 1017.19 1017.19 1017.31 1017.43 1017.51 1017.79 1017.99 1018.07 1018.23 1018.51 1018.67 1018.71 1018.99
1017.51 1017.63 1017.95 1018.23 1018.35 1018.23 1017.91 1017.71 1017.71 1017.71 1017.59 1017.63 1017.71 1017.75 1017.79 1017.99 1018.11 1018.15 1018.27 1017.83 1017.23 1017.15 1017.23 1017.27 1017.35 1016.75 1016.59 1016.87 1017.35 1017.79 1017.55 1017.31 1017.31 1017.39 1017.35 1017.27 1017.11 1017.07 1016.95 1016.71 1016.55 1016.59 1016.87 1017.07 1017.03 1017.11 1017.11 1017.23 1017.15 1016.99 1016.91 1017.11 1017.11 1017.15 1017.27 1017.39 1017.43 1017.47 1017.59 1017.79 1018.11 1018.39 1018.51
1017.91 1018.19 1018.27 1018.27 1018.31 1018.31 1018.07 1017.83 1017.59 1017.59 1017.63 1017.63 1017.71 1017.71 1017.63 1017.59 1017.83 1018.15 1018.35 1018.39 1018.19 1017.87 1017.59 1017.55 1017.79 1017.39 1016.83 1016.99 1017.51 1017.83 1017.75 1017.59 1017.55 1017.39 1017.43 1017.27 1017.15 1017.11 1017.11 1016.91 1016.47 1016.15 1016.27 1016.71 1016.83 1016.87 1016.99 1017.23 1017.39 1017.51 1017.19 1016.71 1016.75 1016.91 1016.91 1016.87 1016.75 1016.87 1017.15 1017.39 1017.51 1017.79 1018.11
1018.31 1018.59 1018.75 1018.87 1018.79 1018.63 1018.51 1018.27 1018.07 1017.87 1017.87 1017.99 1017.75 1017.47 1017.43 1017.39 1017.31 1017.51 1017.83 1017.87 1018.03 1018.15 1018.07 1018.11 1017.99 1017.71 1017.35 1017.07 1017.43 1018.15 1018.03 1017.75 1017.51 1017.39 1017.31 1017.19 1017.19 1016.99 1016.91 1016.95 1016.95 1016.63 1016.19 1016.07 1016.47 1016.55 1016.59 1016.95 1017.19 1017.19 1017.23 1016.99 1016.55 1016.43 1016.39 1016.35 1016.23 1016.47 1016.71 1016.95 1017.11 1017.31 1017.55
1018.47 1018.59 1018.87 1019.03 1019.19 1019.19 1018.95 1018.75 1018.47 1018.23 1017.95 1017.87 1017.83 1017.71 1017.39 1017.07 1017.11 1017.31 1017.51 1017.79 1017.87 1017.83 1017.91 1017.91 1017.83 1017.71 1017.55 1017.43 1017.39 1017.87 1018.27 1018.03 1017.67 1017.51 1017.35 1017.19 1016.99 1016.83 1016.79 1016.83 1016.91 1017.11 1017.31 1017.19 1016.71 1016.71 1016.87 1016.55 1016.55 1016.79 1016.75 1016.83 1016.91 1016.55 1016.07 1015.99 1015.87 1016.03 1016.23 1016.43 1016.67 1016.91 1017.15
1018.39 1018.63 1018.83 1018.99 1019.15 1019.27 1019.11 1018.79 1018.51 1018.31 1018.07 1017.99 1017.79 1017.63 1017.43 1017.23 1017.23 1017.23 1017.23 1017.55 1017.71 1017.87 1017.95 1017.87 1017.75 1017.59 1017.55 1017.47 1017.67 1018.07 1018.43 1018.27 1017.87 1017.71 1017.59 1017.35 1017.11 1016.91 1016.91 1017.03 1017.19 1017.15 1017.07 1017.03 1016.99 1016.79 1016.51 1016.43 1016.47 1016.39 1016.55 1016.67 1016.83 1016.83 1016.47 1016.19 1015.91 1015.91 1015.99 1016.15 1016.31 1016.47 1016.79
1018.39 1018.79 1019.19 1019.27 1019.31 1019.27 1019.15 1018.95 1018.67 1018.47 1018.31 1018.15 1017.95 1017.79 1017.71 1017.63 1017.43 1017.31 1017.27 1017.35 1017.67 1017.91 1018.03 1017.95 1017.83 1017.71 1017.75 1017.95 1018.15 1018.31 1018.39 1018.23 1017.95 1017.87 1017.67 1017.43 1017.31 1017.19 1017.07 1017.03 1017.07 1017.07 1016.99 1017.07 1017.15 1017.11 1016.99 1016.71 1016.63 1016.71 1016.75 1016.67 1016.43 1016.47 1016.55 1016.15 1015.83 1015.79 1016.03 1016.35 1016.63 1016.75 1016.79
1018.11 1018.47 1019.15 1019.27 1019.31 1019.27 1019.11 1018.91 1018.75 1018.67 1018.59 1018.23 1018.03 1017.95 1017.87 1017.99 1017.83 1017.83 1017.79 1017.51 1017.75 1017.99 1018.11 1018.15 1018.23 1018.31 1018.27 1018.35 1018.39 1018.39 1018.35 1018.27 1018.15 1017.99 1017.79 1017.67 1017.63 1017.63 1017.47 1017.27 1017.23 1017.31 1017.23 1017.27 1017.19 1017.03 1016.91 1016.75 1016.55 1016.59 1016.55 1016.39 1016.31 1016.27 1016.07 1015.83 1015.71 1015.71 1015.79 1015.91 1016.07 1016.35 1016.99
1017.75 1018.15 1018.59 1018.87 1018.95 1019.11 1018.87 1018.59 1018.51 1018.51 1018.47 1018.43 1018.35 1018.31 1018.23 1018.11 1018.15 1018.23 1018.19 1018.11 1018.11 1018.23 1018.39 1018.47 1018.63 1018.67 1018.63 1018.59 1018.43 1018.23 1018.03 1017.91 1017.91 1017.83 1017.63 1017.59 1017.75 1017.83 1017.79 1017.79 1017.67 1017.47 1017.35 1017.55 1017.47 1017.31 1017.07 1016.87 1016.59 1016.39 1016.39 1016.31 1016.15 1016.11 1015.95 1015.67 1015.59 1015.67 1015.67 1015.71 1015.87 1016.35 1016.63
1017.43 1017.87 1018.35 1018.67 1018.71 1018.83 1018.83 1018.67 1018.47 1018.47 1018.55 1018.59 1018.63 1018.67 1018.55 1018.43 1018.43 1018.51 1018.59 1018.59 1018.47 1018.63 1018.83 1018.91 1019.03 1018.91 1018.83 1018.71 1018.47 1018.23 1018.03 1017.87 1017.79 1017.79 1017.67 1017.55 1017.63 1017.79 1017.91 1017.83 1017.75 1017.75 1017.59 1017.83 1017.83 1017.67 1017.27 1016.91 1016.67 1016.39 1016.23 1016.23 1016.15 1015.91 1015.87 1015.59 1015.15 1015.27 1015.55 1015.67 1015.71 1015.91 1016.23
1017.83 1018.15 1018.51 1018.67 1018.87 1019.11 1019.07 1019.03 1018.83 1018.83 1018.87 1018.87 1019.07 1018.99 1018.79 1018.79 1018.75 1018.87 1018.99 1018.91 1018.87 1018.91 1019.19 1019.27 1019.23 1019.11 1018.99 1018.79 1018.47 1018.23 1018.07 1017.95 1017.87 1017.87 1017.91 1017.91 1017.83 1017.67 1017.67 1017.63 1017.63 1017.55 1017.47 1017.67 1017.87 1017.87 1017.47 1017.11 1016.95 1016.63 1016.23 1015.87 1015.67 1015.47 1015.55 1015.39 1015.11 1014.95 1015.03 1015.27 1015.63 1015.87 1016.07
1018.35 1018.59 1018.75 1018.71 1018.83 1018.95 1019.15 1019.19 1019.27 1019.35 1019.51 1019.59 1019.55 1019.23 1019.15 1019.15 1019.19 1019.27 1019.31 1019.27 1019.19 1019.31 1019.43 1019.35 1019.23 1019.03 1018.83 1018.71 1018.51 1018.35 1018.23 1018.07 1017.99 1017.91 1017.99 1018.11 1018.07 1017.99 1017.83 1017.59 1017.51 1017.39 1017.47 1017.71 1017.99 1018.15 1017.79 1017.35 1017.07 1016.87 1016.43 1015.99 1015.67 1015.43 1015.19 1015.23 1015.07 1014.83 1014.91 1015.15 1015.47 1015.79 1015.99
1018.31 1018.63 1018.91 1019.07 1019.35 1019.23 1019.43 1019.59 1019.75 1019.87 1019.87 1019.83 1019.67 1019.55 1019.47 1019.47 1019.59 1019.71 1019.59 1019.51 1019.51 1019.59 1019.43 1019.19 1019.07 1018.99 1018.95 1018.79 1018.67 1018.55 1018.39 1018.19 1018.11 1018.07 1017.87 1017.91 1018.07 1018.07 1018.07 1018.07 1018.23 1018.27 1018.43 1018.51 1018.51 1018.35 1017.95 1017.55 1017.27 1016.99 1016.63 1016.11 1015.75 1015.55 1015.31 1015.11 1015.11 1014.95 1015.03 1015.23 1015.47 1015.79 1016.19
1018.67 1018.79 1018.91 1019.19 1019.39 1019.55 1019.79 1019.87 1019.95 1019.95 1019.91 1019.83 1019.83 1019.75 1019.75 1019.75 1019.87 1019.91 1019.87 1019.87 1019.95 1019.75 1019.31 1019.11 1018.99 1018.99 1018.99 1019.03 1018.91 1018.75 1018.55 1018.39 1018.15 1017.95 1017.87 1017.79 1017.79 1018.11 1018.19 1018.03 1018.03 1018.19 1018.31 1018.35 1018.31 1018.15 1017.79 1017.43 1017.23 1017.07 1016.79 1016.35 1015.99 1015.79 1015.55 1015.19 1015.11 1015.55 1015.67 1015.79 1015.79 1015.95 1016.27
1019.23 1019.47 1019.63 1019.75 1019.91 1019.83 1019.95 1020.27 1020.27 1020.23 1020.19 1020.07 1019.95 1019.91 1019.91 1019.95 1020.15 1020.11 1019.99 1020.11 1019.95 1019.55 1019.35 1019.23 1019.11 1018.99 1018.99 1019.03 1019.07 1018.91 1018.75 1018.51 1018.35 1018.19 1017.95 1017.91 1017.87 1017.99 1018.03 1017.83 1017.83 1017.79 1017.79 1017.83 1017.87 1017.79 1017.67 1017.47 1017.23 1017.11 1016.95 1016.63 1016.27 1015.95 1015.71 1015.51 1015.87 1016.27 1016.19 1015.99 1015.99 1015.91 1015.79
1019.39 1019.63 1019.83 1020.07 1020.43 1020.59 1020.51 1020.63 1020.51 1020.43 1020.31 1020.15 1020.07 1019.99 1019.99 1020.11 1020.31 1020.27 1020.23 1020.19 1019.71 1019.47 1019.31 1019.23 1019.19 1019.07 1018.99 1019.03 1019.03 1018.99 1018.91 1018.67 1018.47 1018.31 1018.15 1017.95 1017.83 1017.87 1017.95 1017.87 1017.71 1017.59 1017.51 1017.47 1017.55 1017.63 1017.67 1017.47 1017.27 1017.23 1017.27 1017.23 1016.99 1016.63 1016.35 1016.03 1015.87 1015.63 1015.67 1015.67 1015.47 1015.23 1015.03
1019.91 1020.11 1020.35 1020.67 1020.87 1020.79 1020.87 1021.03 1020.99 1020.79 1020.67 1020.51 1020.39 1020.27 1020.15 1020.11 1020.27 1020.31 1020.39 1020.03 1019.67 1019.63 1019.51 1019.43 1019.35 1019.31 1019.23 1019.03 1018.95 1018.99 1018.95 1018.75 1018.55 1018.43 1018.15 1017.91 1017.87 1018.03 1017.99 1017.87 1017.71 1017.71 1017.47 1017.39 1017.51 1017.55 1017.63 1017.47 1017.31 1017.31 1017.31 1017.27 1017.23 1017.03 1016.67 1016.35 1016.03 1015.71 1015.51 1015.47 1015.47 1015.59 1015.75
1020.15 1020.31 1020.55 1020.79 1020.99 1021.07 1021.11 1021.07 1021.03 1021.07 1021.11 1020.91 1020.71 1020.63 1020.55 1020.51 1020.47 1020.59 1020.39 1019.95 1019.79 1019.59 1019.55 1019.51 1019.47 1019.47 1019.35 1019.15 1018.95 1018.91 1018.87 1018.91 1018.71 1018.43 1018.15 1018.15 1018.07 1017.99 1017.87 1017.91 1017.83 1017.87 1017.79 1017.79 1017.83 1017.79 1017.71 1017.55 1017.39 1017.35 1017.27 1017.31 1017.19 1017.07 1016.83 1016.51 1016.27 1016.03 1015.71 1015.59 1015.63 1015.59 1015.63
1020.55 1020.75 1020.95 1021.11 1021.11 1021.11 1021.19 1021.19 1021.27 1021.31 1021.31 1021.27 1021.07 1020.95 1020.87 1020.79 1020.67 1020.59 1020.39 1020.19 1019.91 1019.67 1019.59 1019.59 1019.59 1019.55 1019.43 1019.35 1019.11 1018.87 1018.83 1018.99 1018.87 1018.71 1018.55 1018.43 1018.27 1018.15 1018.07 1017.99 1017.99 1017.99 1018.07 1018.03 1018.07 1018.07 1017.95 1017.75 1017.63 1017.55 1017.43 1017.31 1017.11 1016.87 1016.71 1016.63 1016.43 1016.15 1015.83 1015.75 1015.99 1016.07 1016.03
1020.75 1020.91 1020.99 1020.99 1021.07 1021.07 1021.15 1021.19 1021.27 1021.35 1021.35 1021.43 1021.35 1021.23 1021.15 1021.11 1020.95 1020.67 1020.43 1020.15 1019.95 1019.71 1019.63 1019.67 1019.63 1019.59 1019.51 1019.35 1019.15 1018.95 1018.87 1018.91 1018.79 1018.87 1018.91 1018.79 1018.67 1018.67 1018.51 1018.27 1018.15 1018.23 1018.31 1018.27 1018.07 1018.07 1018.03 1017.91 1017.79 1017.71 1017.55 1017.35 1017.03 1016.83 1016.67 1016.59 1016.51 1016.31 1016.23 1016.15 1016.19 1016.27 1016.35
1020.71 1020.87 1020.95 1021.03 1020.99 1020.95 1021.15 1021.23 1021.35 1021.39 1021.43 1021.51 1021.43 1021.35 1021.31 1021.23 1021.03 1020.71 1020.47 1020.15 1019.83 1019.67 1019.71 1019.71 1019.63 1019.51 1019.43 1019.27 1019.11 1018.91 1018.71 1018.87 1018.95 1018.95 1019.07 1019.03 1018.95 1018.83 1018.71 1018.59 1018.43 1018.31 1018.15 1017.83 1017.71 1017.67 1017.71 1017.71 1017.63 1017.43 1017.15 1017.11 1017.07 1017.03 1016.95 1016.67 1016.67 1016.35 1016.19 1016.43 1016.63 1016.75 1016.71
1020.67 1020.83 1020.95 1020.95 1020.95 1020.99 1020.99 1021.07 1021.19 1021.39 1021.47 1021.51 1021.43 1021.43 1021.43 1021.35 1021.07 1020.79 1020.51 1020.23 1019.95 1019.67 1019.67 1019.63 1019.63 1019.63 1019.59 1019.35 1019.19 1019.11 1019.11 1019.15 1019.11 1019.15 1019.11 1019.11 1019.11 1019.03 1018.79 1018.35 1018.19 1018.07 1018.07 1017.95 1017.55 1017.43 1017.35 1017.55 1017.51 1017.11 1016.91 1016.99 1016.79 1016.75 1016.99 1016.83 1016.27 1015.99 1016.27 1016.59 1016.71 1016.67 1016.71
1020.67 1020.87 1020.99 1020.99 1021.07 1021.03 1021.11 1021.23 1021.31 1021.43 1021.51 1021.47 1021.43 1021.47 1021.47 1021.43 1021.19 1020.99 1020.67 1020.47 1020.35 1020.15 1019.99 1019.87 1019.83 1019.79 1019.63 1019.63 1019.63 1019.43 1019.31 1019.31 1019.31 1019.23 1019.19 1019.07 1019.03 1018.95 1018.99 1018.83 1018.35 1018.03 1017.83 1017.75 1017.63 1017.51 1017.43 1017.31 1017.23 1017.07 1016.87 1017.03 1016.91 1016.35 1016.23 1016.27 1016.19 1016.15 1016.43 1016.59 1016.43 1016.35 1016.23
1020.43 1020.63 1020.75 1020.75 1020.87 1021.15 1021.27 1021.31 1021.39 1021.47 1021.47 1021.47 1021.51 1021.55 1021.55 1021.47 1021.35 1021.23 1020.99 1020.75 1020.63 1020.47 1020.31 1020.15 1020.15 1020.15 1020.03 1019.91 1019.83 1019.67 1019.55 1019.47 1019.43 1019.35 1019.31 1019.15 1018.95 1018.95 1019.03 1018.99 1018.87 1018.43 1017.99 1017.83 1017.67 1017.55 1017.39 1017.27 1017.03 1016.83 1016.67 1016.51 1016.71 1016.83 1016.31 1015.95 1015.99 1016.15 1016.27 1016.35 1016.35 1016.31 1016.27
Wind_Speed
7 8 5 8 6 5 4 3 4 4 6 7 6 12 11 13 13 12 12 12 12 11 9 9 10 9 8 7 6 6 6 5 4 6 7 6 6 6 5 5 5 4 4 4 4 5 4 5 5 5 5 4 3 4 4 3 3 4 3 3 3 5 5
7 6 6 5 5 5 5 2 1 3 4 4 4 6 6 8 13 13 13 14 13 12 10 9 10 9 9 8 6 6 6 6 5 4 5 6 5 6 6 5 6 6 6 5 4 4 4 5 5 4 5 4 4 4 4 3 3 3 3 3 3 3 4
4 3 3 3 5 5 6 9 3 2 3 4 4 3 4 5 10 12 14 14 13 12 11 9 9 10 8 8 6 7 7 6 6 6 6 6 6 7 7 6 5 6 6 6 6 5 5 4 5 5 5 5 4 4 4 4 4 3 3 3 3 3 2
5 5 5 4 5 5 4 4 6 3 3 3 3 3 1 4 5 8 11 14 13 12 13 10 10 9 9 8 7 7 7 7 6 6 6 5 6 6 6 6 6 6 6 5 6 6 6 5 6 5 6 5 4 5 4 5 4 3 3 4 4 3 3
5 5 4 4 5 5 5 4 4 4 4 3 6 4 1 1 1 5 9 11 13 14 14 14 10 9 8 8 7 7 8 7 7 6 6 5 5 5 5 6 7 6 6 5 5 6 4 6 6 6 6 6 4 5 5 4 5 4 3 4 3 3 5
2 3 4 4 6 5 6 6 3 2 3 6 8 7 2 2 2 3 8 11 11 11 11 10 10 9 9 9 8 7 6 6 6 6 6 6 5 6 5 5 7 6 5 7 5 7 5 6 6 5 6 6 5 6 5 5 4 5 4 4 4 4 5
6 3 2 3 7 8 8 7 8 1 0 1 3 4 4 3 4 5 3 11 12 12 11 11 11 10 10 9 9 8 9 8 7 6 6 7 6 6 7 6 6 7 5 6 5 6 6 7 7 6 6 4 4 6 6 6 5 5 4 4 5 4 5
6 5 7 4 7 8 7 9 9 8 5 3 4 3 2 2 3 6 6 6 9 10 11 12 10 7 5 8 10 9 9 10 8 7 6 6 5 5 7 7 5 6 6 7 6 7 6 7 5 6 7 5 5 4 5 7 6 6 5 5 5 6 4
6 8 11 10 10 8 8 8 8 8 9 8 4 3 1 3 4 9 12 11 7 3 3 1 7 7 6 5 4 6 8 9 9 9 8 7 6 6 6 7 7 5 7 6 6 6 7 7 6 6 6 6 6 7 5 6 7 7 7 6 6 6 5
10 10 9 10 10 9 9 9 8 10 11 10 10 10 10 9 9 10 10 7 8 9 7 2 3 7 6 6 5 4 3 2 8 11 9 8 8 8 6 5 6 7 6 6 6 7 6 7 8 6 7 7 6 7 6 6 6 6 7 8 7 6 6
8 8 8 10 10 9 10 11 10 9 9 9 9 10 10 11 11 8 7 8 5 4 5 5 4 4 2 5 6 3 2 4 2 2 6 7 8 8 6 6 5 8 8 6 5 5 7 7 7 7 7 8 7 6 6 6 7 6 6 6 6 7 7
7 8 8 8 8 9 10 8 7 8 9 8 9 10 10 10 11 11 8 8 3 7 5 2 1 3 3 3 5 3 3 3 5 6 8 6 6 4 3 3 7 5 8 9 7 4 6 8 8 8 8 8 8 7 6 6 6 7 6 6 6 7 7
9 8 8 8 7 7 7 9 9 8 9 8 9 10 9 9 10 11 9 9 9 7 4 4 6 7 8 8 5 7 5 4 4 3 4 4 4 3 4 8 8 4 6 10 8 9 6 7 8 9 9 9 9 8 7 7 6 5 5 6 6 6 7
12 11 10 8 8 8 8 8 8 8 8 8 8 8 8 8 9 9 8 8 9 10 9 7 8 10 10 7 6 6 4 4 5 5 5 5 5 5 6 7 6 7 10 4 7 11 11 7 9 8 9 9 9 9 8 7 7 6 6 5 5 6 7
14 13 11 9 8 7 6 7 8 8 7 8 8 9 7 7 8 8 8 8 9 9 7 5 5 10 11 10 8 6 5 4 4 4 3 4 5 6 5 5 5 4 3 4 7 6 4 6 8 10 9 9 9 9 8 8 8 7 7 7 7 6 5
12 12 12 11 10 9 8 7 7 9 9 8 9 7 8 6 6 7 6 7 8 7 7 6 6 8 9 10 8 6 4 4 4 2 2 3 5 4 3 4 4 4 3 1 2 3 4 7 8 4 10 9 10 10 9 8 7 10 15 12 8 8 8
11 11 11 10 9 10 9 9 8 7 8 8 6 6 4 5 7 8 8 7 8 8 7 7 6 8 10 12 9 7 4 4 4 3 3 3 2 2 1 0 3 5 5 3 3 2 0 3 6 7 5 11 11 11 10 9 9 16 17 17 17 11 9
11 11 10 9 9 8 8 9 9 8 9 10 7 5 4 3 3 5 7 8 9 8 6 6 6 8 9 10 10 5 4 3 3 5 4 3 2 2 3 1 3 4 3 6 7 6 6 4 4 4 4 6 10 11 10 10 13 16 17 18 18 15 10
10 10 9 9 8 7 7 7 7 7 8 8 8 7 7 7 8 9 9 10 10 8 8 7 7 7 9 8 9 7 6 4 4 5 5 5 3 2 3 2 0 2 5 5 1 3 2 5 7 6 3 1 4 8 11 10 14 17 18 19 19 19 15
10 10 9 9 7 6 4 5 5 6 6 6 7 8 8 7 9 8 8 11 10 10 8 7 8 7 8 8 8 5 3 4 5 6 5 4 4 4 3 3 2 2 0 2 3 2 3 4 6 7 5 3 1 0 3 3 6 13 16 17 19 19 17
9 10 10 8 6 5 4 4 4 5 7 8 6 5 7 9 9 9 8 7 11 10 8 8 9 9 7 6 3 3 2 3 4 5 5 4 4 4 4 3 4 4 3 2 3 4 5 2 1 2 2 2 2 2 4 2 6 7 10 10 10 13 13
10 10 10 8 7 4 4 4 4 5 7 5 6 5 5 7 8 9 9 8 10 10 9 9 9 8 6 4 3 1 1 2 3 3 2 3 3 3 4 4 3 4 4 4 4 4 4 4 3 4 4 4 4 4 5 5 8 6 8 10 13 12 7
10 8 9 8 7 5 3 4 4 5 5 7 8 9 7 7 7 8 8 8 8 9 9 8 8 8 6 5 4 4 4 2 3 3 3 3 4 5 5 4 4 4 4 4 4 5 5 4 3 2 2 3 3 4 5 5 7 10 8 8 9 7 5
10 9 9 8 6 5 3 4 5 6 8 8 8 8 8 9 8 6 6 7 7 8 7 7 7 6 6 7 7 6 4 4 3 3 3 4 5 5 6 6 5 6 7 7 7 8 7 6 5 4 4 4 4 5 5 6 7 6 10 12 10 8 6
9 9 10 8 5 4 5 5 6 6 8 9 9 8 8 8 7 7 6 6 6 6 6 6 5 5 6 6 7 6 6 4 4 4 2 2 2 2 3 4 3 3 4 6 7 8 8 7 6 6 5 5 5 8 7 6 7 9 9 10 11 8 5
8 8 8 7 6 5 6 7 8 9 10 10 8 8 8 6 6 5 5 6 4 5 4 4 4 4 4 6 5 5 7 5 4 5 2 4 2 1 1 1 2 4 5 6 5 7 7 7 6 7 7 7 7 6 6 6 6 6 9 10 9 10 6
8 8 7 7 9 8 7 8 8 8 8 7 7 7 6 5 5 5 5 5 5 6 3 3 3 3 3 5 5 6 6 6 5 5 5 0 3 3 3 3 3 3 3 4 6 6 6 6 6 7 8 8 8 7 7 6 6 6 10 11 10 9 7
9 9 7 8 10 7 7 7 7 7 7 7 8 7 6 6 5 5 5 5 6 6 6 3 2 2 3 3 5 6 7 7 6 5 4 4 3 0 2 3 5 5 6 6 6 6 6 5 5 5 6 7 7 7 7 8 10 6 5 6 9 7 9
9 8 8 8 10 10 8 6 6 6 5 5 6 5 6 6 6 5 5 4 6 6 5 6 4 1 2 2 3 4 6 6 7 6 6 4 3 3 4 4 3 4 4 5 4 4 5 5 5 6 6 7 7 7 7 7 6 8 3 5 10 13 12
9 8 8 9 10 7 7 7 7 6 5 4 4 4 4 4 4 4 5 4 5 4 4 5 5 4 1 2 1 2 4 6 7 7 6 3 5 5 5 5 4 3 3 4 3 3 3 3 3 4 5 6 7 7 8 7 4 6 6 7 10 14 15
8 7 7 8 7 5 5 5 5 5 6 6 7 7 6 5 4 4 4 5 5 5 5 5 5 6 4 0 1 1 3 5 6 7 3 5 6 5 5 5 5 5 5 4 2 3 4 4 4 3 4 4 5 6 7 7 7 6 5 6 9 13 14
6 5 7 6 5 4 3 3 3 4 5 6 6 6 6 7 7 6 5 5 4 6 5 5 5 5 6 5 0 2 3 4 6 7 5 6 6 5 6 6 6 6 5 6 6 6 6 5 5 5 5 5 4 4 5 6 6 6 5 4 6 8 11
6 7 6 4 3 1 1 1 2 3 4 3 4 4 5 6 6 6 6 6 6 4 4 4 4 5 4 6 3 1 2 4 6 3 6 6 7 7 7 6 6 6 6 6 6 6 6 6 6 7 6 7 6 5 5 5 5 5 5 6 6 7 8
6 5 4 1 1 1 2 1 3 3 2 3 4 5 5 6 6 5 6 7 6 4 3 4 4 4 4 6 6 0 1 3 5 6 5 6 7 7 8 7 6 6 6 6 6 6 6 6 6 7 7 7 7 7 7 6 5 5 4 6 8 7 6
5 5 2 0 0 1 3 3 4 4 4 5 4 4 5 6 7 7 7 6 6 4 3 3 3 4 5 6 4 2 1 1 3 4 5 5 6 6 6 7 7 7 6 5 5 6 6 7 6 7 7 6 7 7 8 8 6 3 2 5 7 8 7
4 4 2 2 3 2 2 2 4 4 4 4 4 5 5 6 6 6 8 8 8 5 4 3 2 3 4 6 4 4 4 3 4 4 3 3 4 5 6 8 11 8 6 5 9 13 13 6 5 7 7 7 7 5 6 7 8 9 11 11 10 9 9
4 3 4 3 1 0 3 4 5 4 4 4 4 4 5 6 6 6 8 7 8 10 8 7 5 5 4 5 4 3 3 4 4 3 2 2 3 4 5 6 7 9 10 8 9 10 13 14 14 14 13 8 6 9 11 11 13 15 9 8 10 11 11
5 4 1 1 1 3 5 4 4 3 4 4 4 4 4 6 7 8 8 7 9 9 8 7 6 5 5 5 4 5 4 4 3 3 4 5 3 4 5 5 6 7 6 7 9 10 12 14 17 17 16 15 9 5 8 10 10 6 7 11 11 10 11
Wind_Direction
126 105 123 135 143 147 129 177 152 169 147 143 142 170 167 157 158 160 162 166 169 171 175 168 173 175 182 180 177 178 181 181 173 154 163 162 162 167 164 166 162 169 179 174 184 191 186 184 185 173 179 181 167 179 182 186 179 190 174 157 137 169 173
75 114 131 134 135 136 137 112 161 150 146 137 145 158 155 147 161 163 164 170 171 173 176 171 172 178 183 185 177 175 179 183 174 168 151 168 162 169 167 170 164 176 183 186 191 192 178 195 182 176 175 181 183 177 172 174 184 185 169 171 168 160 178
70 38 33 117 132 139 147 140 207 139 124 120 137 186 171 131 165 166 165 170 171 171 174 172 175 177 178 183 177 181 178 179 177 174 174 165 175 171 174 172 173 178 185 184 188 189 189 179 182 175 177 185 183 185 173 173 187 188 178 173 178 176 198
42 14 355 41 70 79 68 122 146 143 110 89 98 143 130 140 145 161 168 169 169 170 175 178 175 175 178 176 184 183 181 183 180 180 182 174 177 168 169 177 176 176 191 186 184 180 180 174 179 179 184 179 180 184 178 176 185 190 184 178 179 186 206
29 340 343 71 78 62 54 32 43 77 124 123 61 346 349 12 137 135 169 173 172 175 178 179 179 177 176 177 182 185 187 182 179 177 181 186 179 177 173 176 180 176 187 191 169 170 163 171 169 175 181 182 180 182 181 176 185 189 190 183 190 188 200
77 319 346 37 66 70 54 31 29 91 120 143 148 185 198 210 210 190 167 173 180 178 176 170 176 174 179 183 185 183 181 187 183 176 179 184 182 187 189 185 178 185 179 192 170 185 173 178 170 163 171 181 175 185 183 189 189 186 189 187 193 198 199
51 15 200 37 63 54 34 22 8 46 66 69 165 151 173 186 198 209 195 173 177 175 172 174 176 177 182 180 187 181 180 186 183 187 182 183 186 187 189 190 179 189 182 184 180 184 164 178 176 170 176 178 186 180 186 188 191 185 182 183 200 213 199
45 47 53 87 86 62 43 30 17 18 25 44 56 78 116 215 207 205 214 169 181 174 174 173 175 176 186 183 181 186 183 185 183 190 185 190 194 184 188 188 184 185 180 179 192 180 169 172 174 177 175 185 194 209 187 185 188 189 184 190 196 219 212
58 49 56 46 58 60 50 41 32 24 28 33 54 5 287 249 15 28 12 1 8 17 30 97 178 174 156 165 155 180 182 180 182 183 189 197 200 200 184 187 190 175 188 185 190 184 177 175 176 173 180 185 189 208 209 195 190 190 186 188 191 205 227
53 52 53 51 52 53 51 41 35 33 29 29 28 30 31 48 74 74 76 48 358 1 11 333 241 168 155 143 137 121 100 179 187 181 187 198 199 201 201 184 187 187 185 198 181 184 185 179 178 169 179 189 193 204 209 199 199 189 188 187 190 199 214
63 62 55 53 50 48 52 45 36 38 37 30 29 34 39 41 48 47 63 107 131 48 32 335 350 322 127 129 122 93 94 96 53 223 190 194 193 199 199 205 192 186 196 194 199 188 185 178 182 179 178 189 197 200 210 195 196 198 193 193 194 196 205
85 74 66 59 60 55 52 52 44 36 41 41 37 33 31 34 43 52 30 16 34 108 103 323 328 316 26 99 97 94 77 66 87 94 86 56 25 8 329 236 203 191 198 192 202 212 192 181 181 184 187 190 194 193 202 198 186 196 204 195 188 196 205
85 75 68 63 59 63 63 59 54 49 50 48 49 46 40 30 38 44 27 26 19 1 45 86 83 65 13 8 60 83 73 78 64 77 86 79 57 46 39 22 353 300 206 192 196 207 203 194 188 184 186 193 191 195 191 198 200 190 200 207 202 196 199
97 79 65 53 55 54 64 71 66 58 51 58 62 60 52 45 48 45 51 43 22 20 2 356 55 70 61 41 16 47 63 69 75 72 80 90 102 82 59 36 24 29 5 316 211 192 206 201 197 191 185 189 193 197 190 188 197 202 202 209 210 207 209
112 107 99 82 62 51 54 76 90 82 70 63 67 66 64 56 53 45 36 47 50 46 21 327 32 74 75 62 33 18 25 40 60 58 64 87 90 89 83 84 72 47 16 37 32 359 320 240 195 193 193 187 192 193 193 188 196 198 199 204 217 219 216
87 83 82 81 71 54 48 49 78 82 72 62 60 69 77 82 80 75 65 46 49 49 35 13 25 67 81 79 69 29 13 48 54 66 82 88 107 120 130 126 125 113 108 38 23 11 18 7 331 236 198 192 191 192 195 196 195 201 201 199 205 213 222
87 79 71 67 70 64 43 36 45 76 72 64 67 56 46 81 120 126 115 110 83 60 52 38 36 45 60 66 53 39 30 46 55 57 77 99 103 85 65 166 180 144 143 172 181 156 310 336 341 335 269 208 193 193 198 200 199 196 201 204 204 205 210
87 88 79 65 51 46 46 36 31 45 76 76 54 47 32 35 66 109 108 98 94 95 88 69 53 53 59 69 71 27 13 27 47 57 59 49 27 60 114 134 307 287 228 172 177 187 175 204 250 286 309 258 217 202 201 201 202 195 199 204 206 205 209
83 83 87 77 61 49 35 24 15 22 48 58 54 45 29 26 29 45 74 74 73 71 65 62 60 65 62 61 68 57 4 354 48 60 55 49 49 42 32 358 351 308 325 311 33 73 258 214 206 233 264 301 281 239 209 205 202 201 199 203 205 207 207
96 93 83 78 73 59 33 16 9 10 50 57 52 48 36 23 30 32 71 88 79 69 58 52 49 55 63 61 58 53 31 11 26 47 49 49 51 58 52 28 359 336 10 321 329 291 208 223 225 219 233 244 158 70 325 281 247 217 206 206 208 209 207
101 102 99 91 77 56 31 8 4 10 46 43 35 45 43 32 29 24 31 67 77 68 56 47 43 40 46 62 72 68 43 39 42 42 29 25 35 37 60 51 8 352 355 336 280 262 281 294 250 281 285 264 244 214 173 188 126 167 209 227 239 239 223
96 95 105 104 95 72 31 1 359 31 60 47 27 21 53 54 40 31 25 38 66 64 52 44 42 37 32 38 42 49 131 96 66 49 46 39 34 38 27 24 21 348 339 315 297 281 260 262 243 231 228 237 245 263 260 182 164 163 181 201 207 204 207
104 99 105 106 101 95 48 2 11 55 63 44 27 25 34 54 51 43 29 29 55 59 52 44 37 28 18 10 2 6 15 55 57 55 43 45 39 36 25 11 357 357 340 321 316 304 289 280 270 238 241 252 235 245 252 266 182 179 199 201 198 186 211
88 88 87 87 83 83 64 24 26 48 58 42 34 42 42 37 40 38 36 32 47 59 57 49 40 22 11 358 350 350 1 27 26 48 49 20 29 40 37 16 21 15 3 352 336 322 323 318 305 288 261 251 262 245 258 259 274 240 189 198 197 185 197
64 74 80 70 67 71 55 43 36 53 54 39 37 42 41 35 34 30 23 22 30 58 58 54 45 30 10 352 344 349 354 6 13 8 82 88 60 32 34 17 18 16 4 342 334 319 310 306 306 304 295 271 250 246 247 262 263 256 250 207 192 188 206
62 54 62 64 48 53 60 45 36 43 45 40 37 37 37 27 27 27 23 15 18 54 62 61 51 35 3 349 343 352 353 352 354 345 8 146 143 126 79 39 16 349 340 328 323 312 311 313 307 299 292 291 289 284 258 251 254 255 250 245 215 193 200
88 74 61 56 55 42 43 44 43 42 39 37 35 29 31 25 29 27 17 11 25 21 33 86 75 62 22 353 350 353 347 340 341 335 338 162 181 173 176 171 180 194 211 259 279 273 284 297 309 312 310 308 303 295 291 269 256 254 240 248 246 223 199
69 62 53 59 56 46 39 38 38 32 32 34 30 22 19 21 32 24 18 20 22 4 348 12 22 81 51 32 0 345 338 334 330 335 336 335 334 194 234 209 194 195 201 211 230 256 273 283 288 290 296 300 298 297 295 293 283 304 306 286 257 242 213
72 65 51 45 44 32 27 35 26 27 29 27 26 21 24 22 22 11 9 10 12 342 346 347 336 37 101 65 29 336 331 327 333 330 328 324 345 356 324 306 267 227 211 218 233 257 279 296 303 308 312 317 318 317 308 310 28 21 307 268 259 259 232
68 60 54 55 52 34 20 17 8 12 13 15 13 22 27 37 18 4 349 5 336 332 336 331 339 321 163 103 74 345 341 330 327 324 312 326 347 337 323 315 316 305 264 238 245 265 300 305 335 349 354 344 336 338 342 347 331 264 275 283 263 250 242
67 65 71 66 53 36 28 17 2 355 6 8 12 10 4 12 16 356 357 342 334 343 343 346 346 347 331 169 133 62 6 323 318 317 323 345 336 329 333 344 347 344 338 333 337 347 348 331 336 334 330 338 330 326 323 328 322 306 271 250 265 271 274
69 65 62 64 66 41 31 360 358 13 26 8 8 12 10 6 4 354 349 331 345 346 340 353 347 341 330 325 113 73 17 321 322 319 348 350 343 346 350 346 341 349 359 24 11 356 338 332 333 327 319 315 308 305 306 311 321 326 325 324 301 287 280
85 77 68 61 57 54 7 292 21 36 33 9 11 15 15 3 355 347 339 339 330 319 338 337 328 325 329 322 325 40 47 349 310 332 6 6 353 352 348 344 355 3 4 358 355 346 333 332 329 322 320 314 313 310 311 314 324 326 333 341 355 354 345
92 85 96 95 75 1 313 319 79 51 32 31 27 17 12 0 346 333 325 317 312 310 319 313 316 315 311 312 297 230 43 302 333 17 14 4 356 350 344 343 347 356 350 339 328 325 321 319 319 315 311 312 310 316 319 322 331 334 9 339 336 331 329
107 117 125 139 186 115 72 44 48 36 38 45 24 23 13 357 339 331 319 302 296 305 307 299 306 308 299 298 289 219 235 54 51 33 22 5 357 340 327 323 331 329 319 309 303 301 303 303 300 296 298 299 302 310 314 314 313 294 29 332 327 324 322
108 102 78 87 56 23 76 71 63 54 45 41 31 24 12 349 329 340 348 353 337 317 308 312 323 327 328 308 327 13 40 43 44 34 18 9 339 324 319 316 310 291 292 304 311 311 308 299 268 280 295 303 291 274 263 279 285 302 320 323 322 306 293
107 115 100 44 3 77 67 67 62 51 44 37 30 24 12 351 346 359 360 8 10 6 4 3 0 350 332 7 24 22 42 24 22 350 336 297 294 305 310 309 311 302 296 289 297 312 318 315 295 283 278 258 281 291 274 259 273 288 308 320 309 309 306
119 107 103 169 166 87 70 68 73 64 45 30 37 17 24 3 14 2 3 7 17 2 1 3 9 12 5 17 5 8 5 11 357 334 322 310 315 330 325 328 323 317 304 298 314 320 319 311 302 295 288 283 257 261 302 294 272 271 333 316 313 305 302